Flag for Canada Weather past 2 weeks in Cape Dorset, Nunavut Territory, Canada

Now
28 °F

Light snow. Scattered clouds.


Feels Like: 14 °F
Forecast: 27 / 29 °F
Wind: 24 mph from Northwest

Location: Cape Dorset

Current Time: Sep 23, 2014 at 8:58:29 AM

Latest Report: Sep 23, 2014 at 8:00 AM


Visibility: 9 mi

Pressure: 29.79 "Hg

Humidity: 80%

Dew point: 23 °F

Location of Cape DorsetLocation

Historic Weather in Cape Dorset — Graph

°F

Cape Dorset temperature yesterday

Maximum temperature yesterday: 32 °F (at 2:00 PM)
Minimum temperature yesterday: 28 °F (at 1:58 AM)
Average temperature yesterday: 30 °F

Past Weeks' High & Low Weather Summary

 TemperatureHumidityPressure
High45 °F (Sep 8, 3:00 PM)100% (Sep 8, 8:00 AM)29.88 "Hg (Sep 8, 8:00 AM)
Low27 °F (Sep 18, 9:00 PM)60% (Sep 14, 10:00 AM)29.14 "Hg (Sep 10, 1:00 AM)
Average32 °F82%29.62 "Hg
* Reported Sep 8 8:00 AM — Sep 23 8:00 AM, Cape Dorset, Weather by CustomWeather, © 2014

Note: Actual official high and low records may vary slightly from our data, if they occured in-between our weather recording intervals... More about our weather records

Advertising

Cape Dorset weather history for previous 24 hours

 ConditionsComfort  
Time TempWeatherWind HumidityBarometerVisibility
8:00 AM
Sep 23
28 °FLight snow. Scattered clouds.24 mph80%29.79 "Hg9 mi
7:48 AM28 °FLight snow. Scattered clouds.25 mph80%29.79 "Hg9 mi
7:00 AM28 °FSunny.26 mph80%29.79 "Hg9 mi
6:00 AM28 °FLight snow. Passing clouds.21 mph80%29.80 "Hg9 mi
5:53 AM28 °FLight snow. Scattered clouds.20 mph86%29.80 "Hg9 mi
5:00 AM30 °FMostly cloudy.24 mph80%29.79 "Hg9 mi
4:57 AM30 °FMostly cloudy.26 mph80%29.79 "Hg9 mi
4:00 AM30 °FPassing clouds.18 mph80%29.78 "Hg9 mi
3:00 AM30 °FClear.15 mph80%29.77 "Hg9 mi
2:00 AM28 °FLight snow. Mostly cloudy.18 mph86%29.78 "Hg9 mi
1:57 AM28 °FLight snow. Mostly cloudy.17 mph86%29.78 "Hg9 mi
1:00 AM28 °FOvercast.16 mph86%29.78 "Hg9 mi
12:04 AM28 °FOvercast.13 mph86%29.79 "Hg9 mi
11:00 PM
Sep 22
30 °FOvercast.12 mph86%29.78 "Hg9 mi
10:00 PM30 °FPassing clouds.14 mph86%29.79 "Hg9 mi
9:00 PM30 °FOvercast.13 mph86%29.78 "Hg9 mi
8:00 PM30 °FOvercast.13 mph86%29.77 "Hg9 mi
7:00 PM30 °FPartly cloudy.20 mph86%29.75 "Hg9 mi
6:00 PM32 °FPartly sunny.17 mph80%29.73 "Hg9 mi
5:02 PM32 °FBroken clouds.21 mph80%29.72 "Hg9 mi
5:00 PM32 °FLight snow. Partly sunny.18 mph80%29.72 "Hg15 mi
4:00 PM32 °FBroken clouds.20 mph80%29.69 "Hg15 mi
3:00 PM30 °FLight snow. Partly sunny.23 mph93%29.66 "Hg15 mi
2:00 PM32 °FLight snow. Partly sunny.21 mph80%29.63 "Hg15 mi
1:00 PM30 °FLight snow. Broken clouds.22 mph86%29.58 "Hg15 mi
12:00 PM30 °FLight snow. Partly sunny.22 mph86%29.54 "Hg15 mi
11:00 AM30 °FLight snow. Partly sunny.17 mph86%29.51 "Hg15 mi
10:46 AM30 °FLight snow. Partly sunny.14 mph86%29.50 "Hg15 mi
10:00 AM30 °FScattered clouds.12 mph86%29.47 "Hg15 mi
9:00 AM28 °FPartly sunny.10 mph86%29.44 "Hg15 mi
8:00 AM28 °FBroken clouds.6 mph93%29.39 "Hg15 mi
Weather by CustomWeather, © 2014

See weather overviewHow to use our weather pages